Loisir ou Compétition : Rejoignez un Club de la Fédération

Résultats

RASSEMBLEMENT REGIONAL POUSSINS BENJAMINS 23 février 2014 MOUTHE

MOUTHE / VERS CHEZ LIADET

FS Dames

Jury de Compétition

Délégué Technique :
JOZ ROLAND RENE (MJ)
D.T. Adjoint :
 
Dir. Epreuve :
WATTEBLED FABRICE (MJ)

Caractéristiques de la Piste

Piste :
VERS CHEZ LIADET
Distance :
2.9 km
Point Haut :
 
Point Bas :
 
Montée Tot. :
 
Montée Max. :
 
Homologation :
 

Pénalité Appliquée :
 
Coefficient :
 

Catégorie :
BEN
Style :
L

23/02/14 - FMJF0282

CltDosClt/CatCodeAnNom PrénomComClubTempsEcartPoints
13961/BENFFS26711902002BILLET EMMAMJOYE-PALLET10:40.100:00.0
23732/BENLCN114213382002JEANNIER LEONIEMJAS VERRIERES10:50.900:10.8
33553/BENFFS26711872002LAHEURTE PERRINEMJOYE-PALLET10:52.100:12.0
43764/BENFFS26711882002PELLEGRINI AUGUSTINEMJOYE-PALLET10:54.600:14.5
53925/BENLCN114219932002PAGNIER CLOEMJCHAUX NEUVE10:54.900:14.8
63616/BENLCN114194512002BESANCON ALICEMJOLYMP MT DOR10:55.000:14.9
73607/BENFFS26657482002LAURENCE COLINEMJCSR PONTARLI11:06.700:26.6
83948/BENFFS26681552002SAVOIE LISAMJHT JURA SKI11:09.100:29.0
93709/BENLCN114556392002DUSAUSSOY EMMAMJVAL MORTEAU11:17.500:37.4
1037410/BENLCN114246082002SALVI JEANNEMJA.S MOUTHE11:22.600:42.5
1135211/BENLCN114410072003PELLEGRINI LILLYMJOYE-PALLET11:26.100:46.0
1236912/BENFFS26711922002MONIER AMANDINEMJOYE-PALLET11:27.900:47.8
1338513/BENFFS26711892002DESCOURVIERES EMILIEMJOYE-PALLET12:01.201:21.1
1437814/BENLCN114304902002BOUVERET MARIONMJBOIS D'AMONT12:03.301:23.2
1537915/BENLCN114720312003ARDIET ELEONOREMJA.S MOUTHE12:09.701:29.6
1639316/BENLCN114222232003SALVI LISAMJOYE-PALLET12:10.001:29.9
1738417/BENFFS26711842002BESANCENET ZELIEMJOYE-PALLET12:11.801:31.7
1838218/BENFFS26706172002CRETENET LEAMJES SAUGETTE12:15.001:34.9
1935319/BENLCN114222432003THERY LENAMJOYE-PALLET12:16.901:36.8
2038720/BENLCN114214862002BLONDEAU ANNAMJCHAUX NEUVE12:20.201:40.1
2138121/BENLCN114245832003LEGENDRE TYFAINEMJA.S MOUTHE12:21.601:41.5
2237222/BENLCN114691272003PREVALET STEPHANIEMJA.S MOUTHE12:22.101:42.0
2338823/BENFFS26500152003MOREL FLAVIEMJSC LESFOURGS12:28.701:48.6
2437524/BENLCN114235972003BAVEREL LOANEMJES SAUGETTE12:32.001:51.9
2536725/BENFFS26712512003LEMAIRE LUCIEMJCSR PONTARLI12:32.201:52.1
2635126/BENLCN114219352003COURVOISIER LEAMJSC MONT NOIR12:35.401:55.3
2739027/BENLCN114223132002BENOIT LAURINEMJSC GRANDVAUX12:43.102:03.0
2835628/BENLCN114223162003DUINAT ROXANEMJSC GRANDVAUX12:52.202:12.1
2938629/BENLCN114245922002CORDIER LOLAMJA.S MOUTHE12:52.402:12.3
3038030/BENLCN114219332003GENSSE LOISEMJSC MONT NOIR12:54.502:14.4
3136231/BENFFS26711912002PERROT MINOT ELISAMJOYE-PALLET13:00.902:20.8
3235432/BENFFS26675952002BUET CLEMENCEMJSMBM13:04.602:24.5
3338333/BENLCN114193642002HAUCK MELISSAMJOLYMP MT DOR13:07.602:27.5
3436334/BENFFS26712532003BOLE ISALINEMJCSR PONTARLI13:11.302:31.2
3536535/BENLCN114210922003MAUGAIN FLAVIEMJES SAUGETTE13:11.802:31.7
3636836/BENFFS26662512002GENRE JAZELET FANTINEMJSC LESFOURGS13:12.002:31.9
3737737/BENLCN114210352003NICOD MARIONMJSC FRASNE DR13:33.902:53.8
3835938/BENLCN114210362003TREAND EMMAMJSC FRASNE DR13:41.603:01.5
3938939/BENLCN114235812003MOUGIN LUCIEMJES SAUGETTE13:43.303:03.2
4035740/BENLCN114287092003PECOUD LAURANEMJCHAUX NEUVE13:50.703:10.6
4137141/BENLCN114556322003BILLOD MARINEMJVAL MORTEAU13:57.503:17.4
4239742/BENLCN114229382003LECOULTRE LARAMJOLYMP MT DOR14:02.403:22.3
4339943/BENLCN114282832003SUITMAN MARGARETTEMJCHAUX NEUVE14:02.603:22.5
4435844/BENFFS26708472002LEBARBE LILAMJSC FRASNE DR14:30.403:50.3
4536445/BENFFS26716032002TOURNIER FLAVIEMJES SAUGETTE14:34.003:53.9
4636646/BENLCN114210342003GRILLON GAELLEMJSC FRASNE DR15:20.104:40.0
4739147/BENLCN114236122003TOURNIER ANNAMJES SAUGETTE15:35.604:55.5
Non partants
395LCN114316802002TAILLARD NOEMIEMJVAL MORTEAU
398LCN114208912002SERRETTE LISAMJSC NOZEROY